Location: Allos
(44.2333°N, 6.6333°E)
Time: 05:04:56
(UTC+00:00)

Helios 1A Rocket - Pass Details

Date: 01 December 2020
Orbit: 564 x 585 km, 98.3° (Epoch: 24 January)

Event Time Altitude Azimuth Distance (km) Brightness Sun altitude
Exits shadow 17:34:06 27° 35° (NE) 1,116 4.0 -17.1°
Drops below altitude 10° 17:36:30 10° 5° (N) 1,869 5.3 -17.5°
Sets 17:38:47 0° 356° (N) 2,772 6.3 -17.9°
